#timestamp,LO_Frequency,Hit,StdDev 
1649858415.4,286046995.0,N
1649858435.2,286046997.4,N
1649858455.0,286046996.5,N
1649858455.9,286046996.5,N
1649858475.8,286046990.4,N
1649858495.6,286046993.8,N
1649858515.5,286046996.8,N
1649858535.3,286047000.2,N
1649858555.1,286046996.3,N
1649858575.9,286046994.5,N
1649858595.7,286046987.4,Y
1649858615.5,286046991.1,P
1649858635.4,286046992.0,P
1649858655.2,286046989.1,P
1649858675.1,286046995.5,N
1649858676.0,286046995.5,N
1649858695.8,286047000.0,N
1649858715.6,286047003.6,N
1649858735.5,286047002.3,N
1649858755.3,286046995.3,N
1649858775.1,286046995.0,N
1649858795.9,286047002.5,N
1649858815.7,286046999.2,N
1649858835.6,286046995.2,N
1649858855.4,286046994.9,N
1649858875.2,286047000.3,N
1649858895.1,286047003.8,N
1649858896.0,286047003.8,N
1649858915.8,286047004.2,N
1649858935.6,286047003.0,N
1649858955.5,286047001.3,N
1649858975.3,286047009.0,N
1649858995.2,286047009.5,N
1649859015.9,286047014.7,N
1649859035.7,286047011.4,N
1649859055.6,286047006.3,N
1649859075.4,286047010.7,N
1649859095.2,286047012.8,N
1649859115.1,286047013.3,N
1649859116.0,286047013.3,N
1649859135.8,286047014.8,N
1649859155.7,286047015.2,N
1649859175.5,286047014.7,N
1649859195.3,286047015.2,N
1649859215.2,286047015.4,N
1649859235.0,286047012.1,N
1649859235.9,286047012.1,N
1649859255.8,286047006.6,N
1649859275.6,286047005.3,N
1649859295.4,286047007.5,N
1649859315.3,286047003.9,N
1649859335.1,286046998.2,N
1649859355.8,286046998.9,N
1649859375.7,286047000.1,N
1649859395.5,286047003.5,N
1649859415.4,286047001.8,N
1649859435.2,286047005.3,N
1649859455.0,286047007.4,N
1649859455.9,286047007.4,N
1649859475.8,286047008.3,N
1649859495.6,286047012.1,N
1649859515.4,286047008.9,N
1649859535.3,286047004.5,N
1649859555.1,286047007.8,N
1649859575.9,286047000.1,N
1649859595.7,286046998.1,N
1649859615.5,286046995.4,N
1649859635.4,286047000.1,N
1649859655.2,286047004.3,N
1649859675.0,286047000.0,N
1649859675.9,286047000.0,N
1649859695.8,286047004.0,N
1649859715.6,286047002.3,N
1649859735.4,286047002.2,N
1649859755.3,286047002.6,N
1649859775.1,286046995.9,N
1649859795.9,286046993.5,N
1649859815.7,286046993.3,N
1649859835.5,286047000.0,N
1649859855.4,286047004.4,N
1649859875.2,286047003.1,N
1649859895.0,286047010.3,N
1649859895.9,286047010.3,N
1649859915.8,286047012.0,N
1649859935.6,286047011.0,N
1649859955.5,286047016.6,Y
1649859975.3,286047009.5,P
1649859995.1,286047013.2,P
1649860015.9,286047015.7,P
1649860035.7,286047020.6,Y
1649860055.6,286047015.1,P
1649860075.4,286047018.0,P
1649860095.2,286047010.7,P
1649860115.1,286047004.2,N
1649860116.0,286047004.2,N
1649860135.8,286047001.6,N
1649860155.6,286047009.0,N
1649860175.5,286047017.2,Y
1649860195.3,286047006.2,P
1649860215.2,286046994.0,P
1649860235.9,286046989.2,N
1649860255.7,286046983.9,N
1649860275.6,286046982.3,N
1649860295.4,286046980.8,N
1649860315.2,286046981.7,N
1649860335.1,286046979.0,N
1649860336.0,286046979.0,N
1649860355.8,286046981.2,N
1649860375.6,286046983.4,N
1649860395.5,286046989.5,N
1649860415.3,286046983.1,N
1649860435.2,286046981.5,N
1649860455.9,286046983.5,N
1649860475.7,286046985.5,N
1649860495.6,286046986.3,N
1649860515.4,286046986.6,N
1649860535.2,286046986.1,N
1649860555.1,286046982.6,N
1649860556.0,286046982.6,N
1649860575.8,286046981.0,N
1649860595.7,286046977.5,N
1649860615.5,286046978.4,N
1649860635.3,286046977.8,N
1649860655.2,286046982.0,N
1649860675.0,286046985.1,N
1649860675.9,286046985.1,N
1649860695.7,286046982.5,N
1649860715.6,286046974.1,Y
1649860735.4,286046988.4,P
1649860755.3,286046986.5,P
1649860775.1,286046979.8,P
1649860776.0,286046979.8,Y
1649860795.8,286046993.2,P
1649860815.7,286046989.9,N
1649860835.5,286046987.8,P
1649860855.4,286046989.3,Y
1649860875.2,286047000.4,P
1649860895.0,286046995.0,N
1649860895.9,286046995.0,N
1649860915.8,286046995.5,N
1649860935.6,286046994.0,N
1649860955.4,286046993.8,N
1649860975.3,286046993.3,N
1649860995.1,286046999.0,N
1649861015.9,286047001.5,N
1649861035.7,286047009.2,N
1649861055.5,286047010.8,N
1649861075.4,286047012.7,N
1649861095.2,286047013.9,N
1649861115.0,286047014.0,N
1649861115.9,286047014.0,N
1649861135.8,286047015.9,N
1649861155.6,286047018.6,N
1649861175.4,286047015.1,N
1649861195.3,286047016.8,N
1649861215.1,286047020.2,N
1649861235.9,286047018.2,N
1649861255.7,286047021.1,N
1649861275.5,286047019.8,N
1649861295.4,286047018.5,N
1649861315.2,286047023.6,N
1649861335.0,286047022.7,N
1649861335.9,286047022.7,N
1649861355.8,286047029.6,N
1649861375.6,286047028.6,N
1649861395.5,286047032.5,N
1649861415.3,286047036.9,Y
1649861435.1,286047028.4,P
1649861455.9,286047026.8,P
1649861475.7,286047020.4,N
1649861495.6,286047020.0,Y
1649861515.4,286046996.4,P
1649861535.2,286046997.0,N
1649861555.1,286046996.5,N
1649861556.0,286046996.5,N
1649861575.8,286046997.6,N
1649861595.6,286046994.7,N
1649861615.5,286046990.4,N
1649861635.3,286046988.4,N
1649861655.1,286046985.3,N
1649861675.9,286046991.4,N
1649861695.7,286046994.2,N
1649861715.6,286046994.7,N
1649861735.4,286046997.7,N
1649861755.2,286047003.4,N
1649861775.1,286047006.1,N
1649861776.0,286047006.1,N
1649861795.8,286047005.5,N
1649861815.7,286046999.2,N
1649861835.5,286046993.1,N
1649861855.3,286046987.1,N
1649861875.2,286046984.9,N
1649861895.9,286046990.3,N
1649861915.7,286046993.5,N
1649861935.6,286046992.3,N
1649861955.4,286046995.6,N
1649861975.3,286046992.7,N
1649861995.1,286046988.1,N
1649861996.0,286046988.1,N
